Location: Newark
(45.9456°N, 15.4064°E)
Time: 20:06:21
(UTC+00:00)

Courier 1B Rocket - Pass Details

Date: 19 January 2020
Orbit: 920 x 1202 km, 28.2° (Epoch: 16 February)

Event Time Altitude Azimuth Distance (km) Brightness Sun altitude
Rises 15:05:08 0° 237° (WSW) 3,613 10.9 4.9°
Reaches altitude 10° 15:09:02 10° 215° (SW) 2,632 8.9 4.4°
Maximum altitude 15:12:21 15° 183° (S) 2,281 7.6 3.9°
Drops below altitude 10° 15:15:39 10° 150° (SSE) 2,602 7.3 3.4°
Sets 15:19:28 0° 128° (SE) 3,547 7.7 2.9°
